Regional Weather Roundup
Issued by NWS

Home | Current Version | Previous Version | Graphics & Text | Print | Product List | Glossary On
Versions: 1 2 3 4 5 6 7 8 9 10 11 12 13 14 15 16 17 18 19 20 21 22 23 24 25 26 27 28
000
ASUS45 KPSR 192210
RWRAZ

ARIZONA HOURLY REGIONAL WEATHER ROUNDUP
NATIONAL WEATHER SERVICE PHOENIX AZ
300 PM MST THU OCT 19 2017

NOTE: FAIR INDICATES FEW OR NO CLOUDS BELOW 12,000 FEET WITH NO
SIGNIFICANT WEATHER AND/OR OBSTRUCTIONS TO VISIBILITY.

AZZ001>003-036-192300-
NORTHWEST ARIZONA

CITY           SKY/WX    TMP DP  RH WIND       PRES   REMARKS
KINGMAN        SUNNY     83  37  19 SW14      29.87F
$$

AZZ004>008-015-016-018-192300-
NORTH CENTRAL ARIZONA

CITY           SKY/WX    TMP DP  RH WIND       PRES   REMARKS
GRAND CANYON   LGT RAIN  70  30  22 S12G26    30.06S
WILLIAMS       PTSUNNY   68  30  24 SW7G17    30.06F
PRESCOTT       MOSUNNY   77  32  19 SW15G23   29.97F
FLAGSTAFF      PTSUNNY   67  29  24 SW14G22   30.09F
PAYSON           N/A     75  34  22 S10       30.02F
PAGE           MOSUNNY   76  29  17 CALM      29.90F
$$

AZZ009>014-017-192300-
NORTHEAST ARIZONA

CITY           SKY/WX    TMP DP  RH WIND       PRES   REMARKS
WINSLOW        FAIR      77  37  23 SE22      29.99F
SAINT JOHNS    CLOUDY    66  38  35 W18G29    30.09R
WINDOW ROCK    CLOUDY    64  37  36 W9        30.13S
SHOW LOW       CLOUDY    61  39  44 SE10G18   30.13F
$$

AZZ540-542>544-546-548-192300-
GREATER PHOENIX AREA

CITY           SKY/WX    TMP DP  RH WIND       PRES   REMARKS
PHOENIX        MOSUNNY   95  35  12 VRB6      29.73F
BUCKEYE        SUNNY     93  66  40 S7        29.74F
GLENDALE       MOSUNNY   95  36  12 S5        29.75F
LUKE AFB       SUNNY     93  40  15 S9        29.72F
DEER VALLEY    SUNNY     92  35  13 SW13      29.77S
SCOTTSDALE     SUNNY     92  36  14 S8        29.77F
MESA-FALCON    MOSUNNY   93  41  16 S6        29.77F
MESA-GATEWAY   MOSUNNY   91  37  15 SW7       29.77F
CHANDLER       MOSUNNY   93  36  13 S7        29.75F
$$

AZZ539-553-192300-
SOUTHWEST MARICOPA COUNTY AND PINAL COUNTY

CITY           SKY/WX    TMP DP  RH WIND       PRES   REMARKS
CASA GRANDE    NOT AVBL
GILA BEND      MOSUNNY   95  45  17 SW7       29.72F
$$

AZZ503-504-507>509-192300-
SOUTHEAST ARIZONA

CITY           SKY/WX    TMP DP  RH WIND       PRES   REMARKS
TUCSON         MOSUNNY   93  35  13 N5        29.85F
DAVIS-MONTHAN  SUNNY     95  34  12 W6        29.83F
RYAN FIELD     SUNNY     93  34  12 W5G16     29.83F
NOGALES        MOSUNNY   87  33  14 SW13      29.93F
SIERRA VISTA   PTSUNNY   84  32  15 W13G20    29.99F
DOUGLAS        PTSUNNY   86  25  11 SW14      29.95S
SAFFORD        CLOUDY    84  43  23 NW18      29.88S
$$

AZZ532-192300-
SOUTHWEST ARIZONA

CITY           SKY/WX    TMP DP  RH WIND       PRES   REMARKS
YUMA           MOSUNNY   94  39  14 W6        29.71F
$$

CAZ041-043-047-048-061-525>527-560>570-192300-
SOUTHERN CALIFORNIA

CITY           SKY/WX    TMP DP  RH WIND       PRES   REMARKS
DOWNTOWN L.A.  MOSUNNY   74  62  66 CALM      29.85F
L.A. AIRPORT   MOSUNNY   71  63  75 SW14      29.88R
SAN DIEGO      CLOUDY    71  60  68 SW9       29.90S
BURBANK        SUNNY     75  58  55 S10       29.85F
ONTARIO        PTSUNNY   77  56  48 SW13      29.86F
RIVERSIDE      PTSUNNY   77  58  51 W10       29.85F
PALM SPRINGS   PTSUNNY   92  41  17 NW14      29.73F
EL CENTRO NAS  PTSUNNY   99  24   7 W24G30    29.70F
IMPERIAL       PTSUNNY   97  35  11 W17       29.67F
NEEDLES        SUNNY     95  21   7 E7        29.72F
$$

NVZ020-UTZ003-192300-
SOUTHERN NEVADA-UTAH

CITY           SKY/WX    TMP DP  RH WIND       PRES   REMARKS
LAS VEGAS      MOSUNNY   87  25  10 E10       29.76F
SALT LAKE CITY PTSUNNY   74  34  23 W7        29.86F
$$

NMZ009-TXZ055-192300-
NEW MEXICO-WEST TEXAS

CITY           SKY/WX    TMP DP  RH WIND       PRES   REMARKS
ALBUQUERQUE    PTSUNNY   75  34  22 CALM      30.02F
EL PASO        MOSUNNY   84  49  29 SE9       29.95F
$$


........................KEY........................
SKY/WX - SKY CONDITION/WEATHER
TMP    - TEMPERATURE IN FAHRENHEIT
DP     - DEW POINT IN FAHRENHEIT
RH     - RELATIVE HUMIDITY IN PERCENT
WIND   - DIRECTION AND SPEED IN MILES PER HOUR (MPH)
VRB    - VARIABLE WIND DIRECTION
PRES   - MEAN SEA LEVEL PRESSURE IN INCHES OF MERCURY
         F - FALLING PRESSURE   R - RISING PRESSURE
         S - STEADY PRESSURE
VSB    - VISIBILITY IN MILES
HX     - HEAT INDEX IN FAHRENHEIT
WCI    - WIND CHILL INDEX IN FAHRENHEIT
TC     - TEMPERATURE IN CELSIUS WHICH IS ALSO KNOWN AS
         TEMPERATURE IN CENTIGRADE
AFB    - AIR FORCE BASE
         LUKE AFB IS LUKE AIR FORCE BASE
         DAVIS-MONTHAN IS DAVIS-MONTHAN AIR FORCE BASE
NAS    - NAVAL AIR STATION
         EL CENTRO NAS IS EL CENTRO NAVAL AIR STATION
N/A    - NOT AVAILABLE





USA.gov is the U.S. government's official web portal to all federal, state and local government web resources and services.